Pampa, TX

5:26 AM CDT on April 22, 2018 (GMT -0500)
Perry Lefors

Weather History for KPPA - February, 2014

Change the Weather History Date:

Wednesday, February 26, 2014

  Actual Average Record
Temperature  
Mean Temperature 24 °F -  
Max Temperature 41 °F 57 °F 81 °F (1981)
Min Temperature 8 °F 29 °F 8 °F (2014)
Degree Days  
Heating Degree Days 40    
Moisture  
Dew Point 10 °F    
Average Humidity 57    
Maximum Humidity 88    
Minimum Humidity 32    
Precipitation  
Precipitation 0.00 in - - ()
Sea Level Pressure  
Sea Level Pressure 30.19 in    
Wind  
Wind Speed 10 mph (WNW)    
Max Wind Speed 21 mph    
Max Gust Speed 26 mph    
Visibility 10 miles    
Events Snow    
Averages and records for this station are not official NWS values.
T = Trace of Precipitation, MM = Missing Value Source: NWS Daily Summary

Daily Weather History Graph

Daily Weather History Graph

Search for Another Location

Airport or City:

Astronomy

Feb. 26, 2014 Rise Set
Actual Time 7:17 AM CST 6:36 PM CST
Civil Twilight 6:51 AM CST 7:02 PM CST
Nautical Twilight 6:22 AM CST 7:31 PM CST
Astronomical Twilight 5:52 AM CST 8:01 PM CST
Moon 5:00 AM CST (2/26) 3:57 PM CST (2/26)
Length of Visible Light 12h 10m
Length of Day
11h 18m
Waning Crescent, 10% of the Moon is Illuminated
Feb 26
Waning Crescent
Mar 1
New
Mar 8
First Quarter
Mar 16
Full
Mar 23
Last Quarter

Hourly Weather History & Observations

Time (CST) Temp. Windchill Dew Point Humidity Pressure Visibility Wind Dir Wind Speed Gust Speed Precip Events Conditions
12:15 AM 18.0 °F 1.3 °F 14.9 °F 88% 30.35 in 4.0 mi NNE 20.7 mph 25.3 mph N/A   Overcast
12:30 AM 17.2 °F 2.7 °F 13.6 °F 86% 30.36 in 5.0 mi NNE 15.0 mph 26.5 mph N/A   Overcast
12:55 AM 16.7 °F 2.0 °F 13.1 °F 86% 30.37 in 5.0 mi NNE 15.0 mph - N/A   Overcast
1:15 AM 16.2 °F 1.3 °F 12.6 °F 86% 30.35 in 5.0 mi NNE 15.0 mph 20.7 mph N/A   Overcast
1:35 AM 15.8 °F 2.7 °F 11.8 °F 84% 30.36 in 10.0 mi NNE 11.5 mph - N/A   Overcast
1:55 AM 15.6 °F 2.5 °F 10.4 °F 80% 30.35 in 10.0 mi NNE 11.5 mph - N/A Snow Light Snow
2:15 AM 15.6 °F 1.8 °F 9.3 °F 76% 30.35 in 10.0 mi North 12.7 mph 18.4 mph N/A   Overcast
2:35 AM 15.6 °F 0.6 °F 8.2 °F 73% 30.34 in 10.0 mi NNE 15.0 mph - N/A   Overcast
2:55 AM 15.3 °F 2.0 °F 7.5 °F 71% 30.34 in 10.0 mi North 11.5 mph - N/A   Overcast
3:10 AM 15.1 °F 1.8 °F 6.8 °F 70% 30.33 in 10.0 mi NNE 11.5 mph - N/A   Overcast
3:35 AM 14.9 °F 0.3 °F 6.6 °F 70% 30.32 in 10.0 mi North 13.8 mph 18.4 mph N/A   Overcast
3:55 AM 14.9 °F -0.3 °F 5.7 °F 67% 30.32 in 10.0 mi North 15.0 mph 19.6 mph N/A   Overcast
4:15 AM 14.9 °F -0.3 °F 5.9 °F 68% 30.32 in 10.0 mi North 15.0 mph 19.6 mph N/A   Overcast
4:35 AM 14.7 °F 0.1 °F 5.9 °F 68% 30.32 in 10.0 mi North 13.8 mph 18.4 mph N/A   Mostly Cloudy
4:55 AM 13.1 °F 0.1 °F 5.4 °F 71% 30.32 in 10.0 mi North 10.4 mph - N/A   Scattered Clouds
5:15 AM 12.6 °F -0.6 °F 5.4 °F 73% 30.31 in 10.0 mi North 10.4 mph - N/A   Clear
5:35 AM 11.8 °F 1.3 °F 5.0 °F 74% 30.31 in 10.0 mi North 6.9 mph - N/A   Clear
5:55 AM 11.3 °F 1.9 °F 5.0 °F 76% 30.31 in 10.0 mi North 5.8 mph - N/A   Clear
6:15 AM 10.8 °F 0.0 °F 5.0 °F 78% 30.30 in 10.0 mi North 6.9 mph - N/A   Clear
6:35 AM 10.2 °F 0.6 °F 4.8 °F 79% 30.30 in 10.0 mi North 5.8 mph - N/A   Clear
6:55 AM 9.5 °F 3.0 °F 4.5 °F 80% 30.30 in 10.0 mi WNW 3.5 mph - N/A   Clear
7:15 AM 8.6 °F 0.1 °F 3.9 °F 81% 30.30 in 10.0 mi WNW 4.6 mph - N/A   Clear
7:35 AM 9.1 °F 0.8 °F 4.1 °F 80% 30.29 in 10.0 mi West 4.6 mph - N/A   Clear
7:55 AM 10.9 °F 4.7 °F 5.9 °F 80% 30.29 in 10.0 mi WNW 3.5 mph - N/A   Clear
8:15 AM 13.1 °F 7.1 °F 7.3 °F 78% 30.28 in 10.0 mi WNW 3.5 mph - N/A   Clear
8:35 AM 14.5 °F 7.1 °F 7.3 °F 73% 30.27 in 10.0 mi WNW 4.6 mph - N/A   Clear
8:55 AM 16.3 °F 5.7 °F 7.7 °F 69% 30.26 in 10.0 mi WNW 8.1 mph - N/A   Clear
9:15 AM 17.1 °F 5.8 °F 7.5 °F 66% 30.26 in 10.0 mi West 9.2 mph - N/A   Clear
9:35 AM 18.3 °F 10.2 °F 7.3 °F 62% 30.26 in 10.0 mi West 5.8 mph - N/A   Clear
9:55 AM 19.8 °F 9.9 °F 7.5 °F 59% 30.25 in 10.0 mi West 8.1 mph - N/A   Clear
10:15 AM 21.7 °F 14.3 °F 8.1 °F 56% 30.25 in 10.0 mi WSW 5.8 mph - N/A   Clear
10:35 AM 21.7 °F 13.2 °F 7.5 °F 54% 30.24 in 10.0 mi West 6.9 mph - N/A   Clear
10:55 AM 23.2 °F 16.0 °F 7.7 °F 52% 30.23 in 10.0 mi West 5.8 mph - N/A   Clear
11:15 AM 25.0 °F 16.3 °F 8.1 °F 49% 30.23 in 10.0 mi West 8.1 mph - N/A   Clear
11:35 AM 26.1 °F 17.6 °F 7.9 °F 46% 30.22 in 10.0 mi WSW 8.1 mph - N/A   Clear
11:55 AM 27.9 °F 24.0 °F 8.4 °F 44% 30.21 in 10.0 mi West 3.5 mph - N/A   Clear
12:15 PM 28.8 °F 23.7 °F 8.1 °F 42% 30.19 in 10.0 mi SW 4.6 mph - N/A   Clear
12:35 PM 31.1 °F 26.4 °F 8.1 °F 38% 30.18 in 10.0 mi West 4.6 mph - N/A   Clear
12:55 PM 31.8 °F 28.5 °F 8.2 °F 37% 30.16 in 10.0 mi WSW 3.5 mph - N/A   Clear
1:15 PM 33.6 °F 28.4 °F 9.5 °F 37% 30.14 in 10.0 mi SW 5.8 mph - N/A   Clear
1:35 PM 34.2 °F 27.5 °F 9.5 °F 36% 30.13 in 10.0 mi West 8.1 mph - N/A   Clear
1:55 PM 35.8 °F - 10.0 °F 34% 30.11 in 10.0 mi Calm Calm - N/A   Clear
2:15 PM 37.2 °F 31.2 °F 11.1 °F 34% 30.10 in 10.0 mi West 8.1 mph - N/A   Clear
2:35 PM 37.4 °F 32.1 °F 10.9 °F 34% 30.09 in 10.0 mi NW 6.9 mph - N/A   Clear
2:50 PM 39.6 °F - 12.0 °F 32% 30.08 in 10.0 mi Calm Calm - N/A   Clear
3:15 PM 39.2 °F 35.9 °F 12.6 °F 34% 30.07 in 10.0 mi West 4.6 mph - N/A   Clear
3:35 PM 39.7 °F 36.5 °F 13.1 °F 34% 30.07 in 10.0 mi NW 4.6 mph 17.3 mph N/A   Clear
3:55 PM 40.5 °F 35.1 °F 14.0 °F 34% 30.06 in 10.0 mi West 8.1 mph - N/A   Clear
4:15 PM 41.5 °F 38.6 °F 14.5 °F 33% 30.06 in 10.0 mi West 4.6 mph - N/A   Clear
4:35 PM 41.2 °F 35.5 °F 14.9 °F 34% 30.05 in 10.0 mi West 9.2 mph - N/A   Clear
4:55 PM 41.9 °F 36.9 °F 15.4 °F 34% 30.05 in 10.0 mi West 8.1 mph - N/A   Clear
5:15 PM 41.5 °F 37.1 °F 15.6 °F 35% 30.03 in 10.0 mi West 6.9 mph - N/A   Clear
5:35 PM 41.5 °F 37.1 °F 16.0 °F 36% 30.03 in 10.0 mi WSW 6.9 mph - N/A   Clear
5:55 PM 41.0 °F 36.4 °F 16.2 °F 37% 30.03 in 10.0 mi West 6.9 mph - N/A   Clear
6:15 PM 39.4 °F 36.1 °F 15.8 °F 38% 30.03 in 10.0 mi West 4.6 mph - N/A   Clear
6:35 PM 37.4 °F - 15.8 °F 41% 30.03 in 10.0 mi Calm Calm - N/A   Clear
6:55 PM 35.8 °F - 15.8 °F 44% 30.04 in 10.0 mi Calm Calm - N/A   Clear
7:15 PM 35.6 °F - 16.2 °F 45% 30.04 in 10.0 mi Calm Calm - N/A   Clear
7:35 PM 34.7 °F - 16.0 °F 46% 30.05 in 10.0 mi Calm Calm - N/A   Clear
7:55 PM 34.7 °F - 16.5 °F 48% 30.05 in 10.0 mi Calm Calm - N/A   Clear
8:15 PM 33.1 °F 30.0 °F 16.2 °F 50% 30.05 in 10.0 mi South 3.5 mph - N/A   Clear
8:35 PM 31.3 °F 26.6 °F 15.4 °F 52% 30.05 in 10.0 mi SSW 4.6 mph - N/A   Clear
8:55 PM 30.0 °F 22.4 °F 14.5 °F 53% 30.06 in 10.0 mi SSW 8.1 mph - N/A   Clear
9:10 PM 27.9 °F 19.1 °F 13.8 °F 56% 30.06 in 10.0 mi SSW 9.2 mph - N/A   Clear
9:35 PM 26.4 °F 18.0 °F 12.6 °F 56% 30.06 in 10.0 mi SSW 8.1 mph - N/A   Clear
9:55 PM 27.3 °F 19.1 °F 12.2 °F 53% 30.06 in 10.0 mi SSW 8.1 mph - N/A   Clear
10:15 PM 27.5 °F 17.4 °F 11.8 °F 52% 30.07 in 10.0 mi SSW 11.5 mph - N/A   Clear
10:35 PM 26.6 °F 17.5 °F 11.1 °F 52% 30.06 in 10.0 mi SSW 9.2 mph - N/A   Clear
10:55 PM 26.2 °F 17.1 °F 10.9 °F 52% 30.06 in 10.0 mi SSW 9.2 mph - N/A   Clear
11:15 PM 26.2 °F 17.1 °F 10.9 °F 52% 30.05 in 10.0 mi SW 9.2 mph - N/A   Clear
11:35 PM 25.2 °F 15.7 °F 10.6 °F 54% 30.05 in 10.0 mi SW 9.2 mph - N/A   Clear
11:50 PM 25.0 °F 15.5 °F 10.4 °F 54% 30.05 in 10.0 mi SW 9.2 mph - N/A   Clear